TimeMST,TemperatureF,Dew PointF,Humidity,Sea Level PressureIn,VisibilityMPH,Wind Direction,Wind SpeedMPH,Gust SpeedMPH,PrecipitationIn,Events,Conditions,WindDirDegrees,DateUTC
12:15 AM,50.0,23.0,35,30.21,10.0,Calm,Calm,-,N/A,,Clear,0,2012-11-05 07:15:00
12:35 AM,50.0,23.0,35,30.20,10.0,NNE,4.6,-,N/A,,Clear,30,2012-11-05 07:35:00
12:55 AM,44.6,23.0,43,30.20,10.0,NE,8.1,-,N/A,,Clear,40,2012-11-05 07:55:00
1:15 AM,50.0,23.0,35,30.20,10.0,NNE,5.8,-,N/A,,Clear,20,2012-11-05 08:15:00
1:35 AM,53.6,23.0,30,30.20,10.0,NE,8.1,-,N/A,,Clear,50,2012-11-05 08:35:00
1:55 AM,48.2,23.0,37,30.20,10.0,East,3.5,-,N/A,,Clear,90,2012-11-05 08:55:00
2:15 AM,41.0,21.2,45,30.20,10.0,SSE,4.6,-,N/A,,Clear,150,2012-11-05 09:15:00
2:35 AM,39.2,21.2,49,30.20,10.0,South,3.5,-,N/A,,Clear,180,2012-11-05 09:35:00
2:55 AM,39.2,19.4,45,30.21,10.0,ESE,6.9,-,N/A,,Clear,120,2012-11-05 09:55:00
3:15 AM,39.2,23.0,52,30.20,10.0,ESE,5.8,-,N/A,,Clear,110,2012-11-05 10:15:00
3:35 AM,41.0,23.0,49,30.20,10.0,ESE,5.8,-,N/A,,Clear,120,2012-11-05 10:35:00
3:55 AM,41.0,23.0,49,30.21,10.0,SE,4.6,-,N/A,,Clear,130,2012-11-05 10:55:00
4:15 AM,42.8,23.0,46,30.21,10.0,SSE,3.5,-,N/A,,Clear,160,2012-11-05 11:15:00
4:35 AM,39.2,23.0,52,30.22,10.0,Calm,Calm,-,N/A,,Clear,0,2012-11-05 11:35:00
5:15 AM,39.2,23.0,52,30.21,10.0,Calm,Calm,-,N/A,,Clear,0,2012-11-05 12:15:00
5:35 AM,37.4,21.2,52,30.22,10.0,Calm,Calm,-,N/A,,Clear,0,2012-11-05 12:35:00
5:55 AM,41.0,23.0,49,30.22,10.0,Calm,Calm,-,N/A,,Clear,0,2012-11-05 12:55:00
6:15 AM,35.6,21.2,56,30.23,10.0,ESE,6.9,-,N/A,,Clear,120,2012-11-05 13:15:00
6:35 AM,37.4,23.0,56,30.23,10.0,SE,5.8,-,N/A,,Clear,130,2012-11-05 13:35:00
6:55 AM,39.2,24.8,56,30.25,10.0,SSE,3.5,-,N/A,,Clear,160,2012-11-05 13:55:00
7:15 AM,41.0,24.8,53,30.25,10.0,SSE,3.5,-,N/A,,Clear,150,2012-11-05 14:15:00
7:35 AM,44.6,24.8,46,30.26,10.0,Calm,Calm,-,N/A,,Clear,0,2012-11-05 14:35:00
7:55 AM,46.4,24.8,43,30.26,10.0,SSE,5.8,-,N/A,,Clear,160,2012-11-05 14:55:00
8:15 AM,48.2,24.8,40,30.27,10.0,SE,4.6,-,N/A,,Clear,140,2012-11-05 15:15:00
8:35 AM,53.6,24.8,33,30.27,10.0,SSE,6.9,-,N/A,,Clear,150,2012-11-05 15:35:00
8:55 AM,55.4,24.8,31,30.27,10.0,SSE,6.9,-,N/A,,Clear,160,2012-11-05 15:55:00
9:15 AM,59.0,24.8,27,30.27,10.0,South,5.8,-,N/A,,Clear,170,2012-11-05 16:15:00
9:35 AM,60.8,24.8,25,30.27,10.0,SSW,5.8,-,N/A,,Clear,200,2012-11-05 16:35:00
9:55 AM,62.6,24.8,24,30.27,10.0,SSW,5.8,-,N/A,,Clear,210,2012-11-05 16:55:00
10:15 AM,64.4,24.8,22,30.27,10.0,SW,5.8,-,N/A,,Clear,220,2012-11-05 17:15:00
10:35 AM,66.2,24.8,21,30.26,10.0,SSW,6.9,-,N/A,,Clear,200,2012-11-05 17:35:00
10:55 AM,68.0,24.8,20,30.26,10.0,SSW,5.8,-,N/A,,Clear,200,2012-11-05 17:55:00
11:15 AM,69.8,24.8,18,30.25,10.0,SW,8.1,-,N/A,,Clear,220,2012-11-05 18:15:00
11:35 AM,71.6,23.0,16,30.24,10.0,WSW,5.8,-,N/A,,Clear,240,2012-11-05 18:35:00
11:55 AM,71.6,23.0,16,30.22,10.0,SW,6.9,-,N/A,,Clear,230,2012-11-05 18:55:00
12:15 PM,71.6,21.2,15,30.21,10.0,WSW,3.5,-,N/A,,Clear,250,2012-11-05 19:15:00
12:35 PM,73.4,19.4,13,30.20,10.0,South,4.6,-,N/A,,Clear,180,2012-11-05 19:35:00
12:55 PM,73.4,17.6,12,30.19,10.0,Calm,Calm,-,N/A,,Clear,0,2012-11-05 19:55:00
1:15 PM,73.4,15.8,11,30.18,10.0,SSW,4.6,-,N/A,,Clear,210,2012-11-05 20:15:00
1:35 PM,73.4,15.8,11,30.18,10.0,West,3.5,-,N/A,,Clear,280,2012-11-05 20:35:00
1:55 PM,73.4,15.8,11,30.17,10.0,Calm,Calm,-,N/A,,Clear,0,2012-11-05 20:55:00
2:15 PM,73.4,14.0,10,30.17,10.0,Calm,Calm,-,N/A,,Clear,0,2012-11-05 21:15:00
2:35 PM,75.2,15.8,11,30.17,10.0,West,4.6,-,N/A,,Clear,280,2012-11-05 21:35:00
2:55 PM,75.2,14.0,10,30.17,10.0,NW,3.5,-,N/A,,Clear,310,2012-11-05 21:55:00
3:15 PM,75.2,15.8,11,30.16,10.0,SW,4.6,-,N/A,,Clear,230,2012-11-05 22:15:00
3:35 PM,75.2,15.8,11,30.16,10.0,Calm,Calm,-,N/A,,Clear,0,2012-11-05 22:35:00
3:55 PM,75.2,15.8,11,30.16,10.0,West,3.5,-,N/A,,Clear,280,2012-11-05 22:55:00
4:15 PM,75.2,15.8,11,30.16,10.0,Calm,Calm,-,N/A,,Clear,0,2012-11-05 23:15:00
4:35 PM,73.4,15.8,11,30.16,10.0,Calm,Calm,-,N/A,,Clear,0,2012-11-05 23:35:00
4:55 PM,71.6,15.8,12,30.16,10.0,WSW,5.8,-,N/A,,Clear,240,2012-11-05 23:55:00
5:15 PM,68.0,15.8,13,30.16,10.0,SW,6.9,-,N/A,,Clear,230,2012-11-06 00:15:00
5:35 PM,66.2,15.8,14,30.16,10.0,SW,5.8,-,N/A,,Clear,230,2012-11-06 00:35:00
5:55 PM,60.8,15.8,17,30.17,10.0,Calm,Calm,-,N/A,,Clear,0,2012-11-06 00:55:00
6:15 PM,57.2,14.0,18,30.18,10.0,East,3.5,-,N/A,,Clear,80,2012-11-06 01:15:00
6:35 PM,55.4,14.0,20,30.19,10.0,ENE,3.5,-,N/A,,Clear,70,2012-11-06 01:35:00
6:55 PM,57.2,14.0,18,30.19,10.0,ENE,4.6,-,N/A,,Clear,70,2012-11-06 01:55:00
7:15 PM,55.4,14.0,20,30.18,10.0,East,5.8,-,N/A,,Clear,90,2012-11-06 02:15:00
7:35 PM,55.4,14.0,20,30.18,10.0,ENE,5.8,-,N/A,,Clear,70,2012-11-06 02:35:00
7:55 PM,55.4,14.0,20,30.18,10.0,East,6.9,-,N/A,,Clear,80,2012-11-06 02:55:00
8:15 PM,55.4,14.0,20,30.18,10.0,East,8.1,-,N/A,,Clear,80,2012-11-06 03:15:00
8:35 PM,55.4,14.0,20,30.18,10.0,East,5.8,-,N/A,,Clear,100,2012-11-06 03:35:00
8:55 PM,53.6,14.0,21,30.18,10.0,East,5.8,-,N/A,,Clear,90,2012-11-06 03:55:00
9:15 PM,53.6,14.0,21,30.19,10.0,ENE,5.8,-,N/A,,Clear,70,2012-11-06 04:15:00
9:35 PM,55.4,14.0,20,30.19,10.0,ENE,8.1,-,N/A,,Clear,70,2012-11-06 04:35:00
9:55 PM,53.6,14.0,21,30.19,10.0,ENE,8.1,-,N/A,,Clear,60,2012-11-06 04:55:00
10:15 PM,51.8,14.0,22,30.19,10.0,ENE,6.9,-,N/A,,Clear,60,2012-11-06 05:15:00
10:35 PM,53.6,14.0,21,30.19,10.0,East,6.9,-,N/A,,Clear,90,2012-11-06 05:35:00
10:55 PM,51.8,14.0,22,30.19,10.0,East,4.6,-,N/A,,Clear,90,2012-11-06 05:55:00
11:15 PM,53.6,14.0,21,30.19,10.0,Calm,Calm,-,N/A,,Clear,0,2012-11-06 06:15:00
11:35 PM,50.0,14.0,24,30.19,10.0,West,4.6,-,N/A,,Clear,260,2012-11-06 06:35:00
11:55 PM,50.0,14.0,24,30.19,10.0,West,6.9,-,N/A,,Clear,280,2012-11-06 06:55:00